Back to catalog

CZ-4C DEB

AliveLEO
NORAD 39016·DEBRIS·🇨🇳 China

Launched Nov 25, 2012 from Jiuquan Satellite Launch Center

Loading…

Next Passes (next 24 hours)

TLE

FreshSource: Space-Track

Epoch: Sep 14, 2026, 04:37 UTC

1 39016U 12066F   26257.19293530 -.00000027  00000-0  58076-4 0  9998
2 39016  63.3519  73.7601 0451039  29.0192 333.5117 13.45343750677768

Track CZ-4C DEB in real time with AllMySat

Download on the App Store